666  
ASUS44 KSHV 222210  
RWRSHV  
 
WEATHER ROUNDUP FOR THE FOUR STATE AREA  
NATIONAL WEATHER SERVICE SHREVEPORT LA  
400 PM CST WED JAN 22 2020  
 
NOTE: "FAIR" INDICATES FEW OR NO CLOUDS BELOW 12000 FEET  
WITH NO SIGNIFICANT WEATHER AND/OR S TO VISIBILITY
.  
 
!LAZ001-LAZ014-TXZ097-222300  
SHREVEPORT...MONROE...TEXARKANA RADIOS  
 
CITY SKY/WX TMP DP RH WIND PRES REMARKS
 
SHREVEPORT LGT RAIN 38 36 92 SE10 30.06F WCI 31  
MONROE LGT RAIN 38 33 82 E6 30.17F WCI 33  
NATCHITOCHES DRIZZLE 40 39 98 SE7 30.11F WCI 35  
TEXARKANA LGT RAIN 35 33 92 E7 30.08F FOG WCI 29  

 
 
!LAZ001-LAZ014-TXZ097-222300  
OTHER LOCATIONS...  
 
CITY SKY/WX TMP DP RH WIND PRES REMARKS
 
DOWNTOWN SHV LGT RAIN 39 36 89 E12 30.07F WCI 32  
BOSSIER CITY LGT RAIN 37 37 100 E10 30.07F WCI 30  
RUSTON LGT RAIN 36 33 91 SE6 30.15F WCI 31  
LITTLE ROCK LGT RAIN 35 31 85 SE6 30.17F WCI 30  
EL DORADO RAIN 35 35 100 E6 30.15F FOG WCI 30  
JACKSON PTSUNNY 46 22 38 SE8 30.19F  
NEW ORLEANS CLOUDY 51 39 63 E10 30.19F  
HOUSTON LGT RAIN 57 54 89 SE17G26 29.94F  
LUFKIN LGT RAIN 44 41 89 SE14 30.00F  
TYLER CLOUDY 42 40 92 SE8 29.98S  
DAL FT WORTH CLOUDY 43 42 97 SE15 29.90F  

 
 
!TXZ136-TXZ165-222300  
TYLER...LUFKIN RADIOS  
 
CITY SKY/WX TMP DP RH WIND PRES REMARKS
 
TYLER CLOUDY 42 40 92 SE8 29.98S  
GILMER RAIN 38 38 97 MISG 30.01F  
LONGVIEW LGT RAIN 40 37 89 SE9G18 30.00F WCI 34  
LUFKIN LGT RAIN 44 41 89 SE14 30.00F  

 
 
!TXZ136-TXZ165-222300  
OTHER LOCATIONS...  
 
CITY SKY/WX TMP DP RH WIND PRES REMARKS
 
NACOGDOCHES CLOUDY 43 43 100 SE12 30.01F  
BEAUMONT LGT RAIN 51 49 92 E14 30.03F FOG  
HOUSTON LGT RAIN 57 54 89 SE17G26 29.94F  
COLLEGE STN LGT RAIN 56 54 93 SE10 29.94F  
AUSTIN LGT RAIN 58 57 97 S5 29.91F FOG  
DAL FT WORTH CLOUDY 43 42 97 SE15 29.90F  
TEXARKANA LGT RAIN 35 33 92 E7 30.08F FOG WCI 29  
SHREVEPORT LGT RAIN 38 36 92 SE10 30.06F WCI 31  
FORT POLK LGT RAIN 42 41 97 E8 30.08F FOG  
LAKE CHARLES LGT RAIN 49 45 86 E10 30.09F  

 
 
 
CLICK HERE TO GO TO PREVIOUS BULLETINS.

The Nexlab LA Page
The Nexlab TX Page
The Nexlab AR Page
The Nexlab OK Page Main Text Page